| time (UTC) | temp F | wind direction | speed MPH | gust MPH | rain 1hr in | rain 24hr in | rain mn in | humidity % | barometer mb |
| 20260508081016 | 60 | 315 | 1.0 | 2.0 | 0.00 | 0.29 | 0.01 | 80 | 1014.2 |
| 20260508080517 | 60 | 0.0 | 0.0 | 0.00 | 0.29 | 0.01 | 80 | 1014.2 | |
| 20260508080016 | 60 | 0.0 | 0.0 | 0.00 | 0.29 | 0.01 | 80 | 1014.3 | |
| 20260508075516 | 60 | 0.0 | 1.0 | 0.00 | 0.29 | 0.01 | 80 | 1014.4 | |
| 20260508075056 | 60 | 0.0 | 0.0 | 0.00 | 0.29 | 0.01 | 80 | 1014.3 | |
| 20260508074516 | 60 | 0.0 | 0.0 | 0.00 | 0.29 | 0.01 | 81 | 1014.2 | |
| 20260508074016 | 60 | 0.0 | 0.0 | 0.00 | 0.29 | 0.01 | 81 | 1014.1 | |
| 20260508073536 | 60 | 0.0 | 0.0 | 0.00 | 0.29 | 0.01 | 81 | 1014.0 | |
| 20260508073016 | 60 | 0.0 | 0.0 | 0.00 | 0.29 | 0.01 | 81 | 1014.0 | |
| 20260508072516 | 60 | 0.0 | 1.0 | 0.00 | 0.29 | 0.01 | 81 | 1013.9 | |
| 20260508072016 | 60 | 315 | 1.0 | 3.0 | 0.00 | 0.29 | 0.01 | 80 | 1013.9 |
| 20260508071516 | 60 | 315 | 1.0 | 3.0 | 0.00 | 0.29 | 0.01 | 79 | 1013.8 |
| 20260508071016 | 60 | 0.0 | 0.0 | 0.00 | 0.29 | 0.01 | 80 | 1013.8 | |
| 20260508070516 | 59 | 0.0 | 0.0 | 0.00 | 0.29 | 0.01 | 80 | 1013.8 | |
| 20260508070016 | 59 | 0.0 | 1.0 | 0.00 | 0.29 | 0.01 | 80 | 1013.8 | |
| 20260508065516 | 59 | 293 | 2.0 | 4.0 | 0.00 | 0.29 | 0.01 | 81 | 1013.7 |
| 20260508065016 | 58 | 293 | 3.0 | 5.0 | 0.00 | 0.29 | 0.01 | 81 | 1013.6 |
| 20260508064516 | 58 | 270 | 4.0 | 7.0 | 0.00 | 0.29 | 0.01 | 82 | 1013.6 |
| 20260508064016 | 58 | 270 | 5.0 | 7.0 | 0.00 | 0.29 | 0.01 | 82 | 1013.7 |
| 20260508063516 | 57 | 270 | 4.0 | 7.0 | 0.00 | 0.29 | 0.01 | 81 | 1013.5 |
| 20260508063016 | 57 | 270 | 5.0 | 7.0 | 0.00 | 0.29 | 0.01 | 81 | 1013.4 |
| 20260508062516 | 57 | 270 | 3.0 | 6.0 | 0.00 | 0.29 | 0.01 | 82 | 1013.4 |
| 20260508062016 | 57 | 270 | 3.0 | 4.0 | 0.00 | 0.29 | 0.01 | 82 | 1013.4 |
| 20260508061516 | 57 | 270 | 2.0 | 3.0 | 0.00 | 0.29 | 0.01 | 82 | 1013.3 |
| 20260508061016 | 57 | 293 | 1.0 | 3.0 | 0.00 | 0.29 | 0.01 | 82 | 1013.1 |
| 20260508060516 | 57 | 315 | 1.0 | 3.0 | 0.00 | 0.29 | 0.01 | 82 | 1013.0 |
| 20260508060016 | 57 | 315 | 3.0 | 5.0 | 0.00 | 0.29 | 0.01 | 83 | 1012.9 |
| 20260508055516 | 56 | 293 | 3.0 | 6.0 | 0.00 | 0.29 | 0.01 | 83 | 1012.9 |
| 20260508055016 | 56 | 270 | 3.0 | 6.0 | 0.00 | 0.29 | 0.01 | 83 | 1013.0 |
| 20260508054516 | 56 | 270 | 3.0 | 4.0 | 0.00 | 0.29 | 0.01 | 82 | 1013.1 |
| 20260508054016 | 56 | 270 | 4.0 | 7.0 | 0.00 | 0.29 | 0.01 | 82 | 1012.9 |
| 20260508053516 | 56 | 270 | 5.0 | 8.0 | 0.00 | 0.29 | 0.01 | 83 | 1013.1 |
| 20260508053016 | 56 | 270 | 6.0 | 8.0 | 0.00 | 0.29 | 0.01 | 83 | 1013.1 |
| 20260508052536 | 56 | 270 | 4.0 | 7.0 | 0.00 | 0.29 | 0.01 | 83 | 1013.0 |
| 20260508052016 | 56 | 270 | 3.0 | 6.0 | 0.00 | 0.29 | 0.01 | 83 | 1012.9 |
| 20260508051516 | 56 | 270 | 3.0 | 7.0 | 0.00 | 0.29 | 0.01 | 83 | 1012.8 |
| 20260508051016 | 56 | 270 | 4.0 | 7.0 | 0.00 | 0.29 | 0.01 | 83 | 1012.8 |
| 20260508050516 | 56 | 270 | 4.0 | 7.0 | 0.00 | 0.29 | 0.01 | 84 | 1012.8 |
| 20260508050016 | 56 | 270 | 4.0 | 7.0 | 0.00 | 0.29 | 0.01 | 84 | 1012.7 |
| 20260508045516 | 56 | 270 | 6.0 | 8.0 | 0.00 | 0.29 | 0.01 | 84 | 1012.6 |
| 20260508045016 | 56 | 270 | 4.0 | 8.0 | 0.00 | 0.29 | 0.01 | 84 | 1012.5 |
| 20260508044516 | 56 | 270 | 4.0 | 7.0 | 0.00 | 0.29 | 0.01 | 84 | 1012.5 |
| 20260508044016 | 56 | 270 | 5.0 | 9.0 | 0.00 | 0.29 | 0.01 | 84 | 1012.5 |
| 20260508043516 | 56 | 270 | 5.0 | 8.0 | 0.00 | 0.29 | 0.01 | 84 | 1012.6 |
| 20260508043016 | 56 | 270 | 7.0 | 10.0 | 0.00 | 0.29 | 0.01 | 83 | 1012.6 |
| 20260508042516 | 56 | 270 | 8.0 | 11.0 | 0.00 | 0.29 | 0.01 | 83 | 1012.6 |
| 20260508042016 | 56 | 270 | 6.0 | 10.0 | 0.00 | 0.29 | 0.01 | 83 | 1012.6 |
| 20260508041516 | 56 | 270 | 7.0 | 11.0 | 0.00 | 0.29 | 0.01 | 83 | 1012.5 |
| 20260508041016 | 56 | 270 | 8.0 | 11.0 | 0.00 | 0.29 | 0.01 | 83 | 1012.4 |
| 20260508040516 | 56 | 248 | 3.0 | 8.0 | 0.00 | 0.29 | 0.01 | 84 | 1012.3 |
| 20260508040016 | 56 | 270 | 3.0 | 6.0 | 0.00 | 0.29 | 0.01 | 84 | 1012.1 |
| 20260508035516 | 56 | 270 | 4.0 | 8.0 | 0.00 | 0.29 | 0.01 | 84 | 1012.0 |
| 20260508035036 | 56 | 270 | 4.0 | 8.0 | 0.00 | 0.29 | 0.01 | 84 | 1012.1 |
| 20260508034516 | 56 | 270 | 3.0 | 8.0 | 0.00 | 0.29 | 0.01 | 84 | 1012.1 |
| 20260508034016 | 56 | 270 | 3.0 | 7.0 | 0.00 | 0.29 | 0.01 | 84 | 1012.0 |
| 20260508033516 | 56 | 270 | 2.0 | 7.0 | 0.00 | 0.29 | 0.01 | 84 | 1012.0 |
| 20260508033016 | 56 | 270 | 4.0 | 9.0 | 0.00 | 0.29 | 0.01 | 84 | 1012.1 |
| 20260508032536 | 56 | 270 | 5.0 | 9.0 | 0.00 | 0.29 | 0.01 | 84 | 1012.3 |
| 20260508032036 | 56 | 270 | 6.0 | 9.0 | 0.00 | 0.29 | 0.01 | 85 | 1012.4 |
| 20260508031616 | 56 | 270 | 5.0 | 9.0 | 0.00 | 0.29 | 0.01 | 85 | 1012.5 |
| 20260508031016 | 56 | 270 | 5.0 | 9.0 | 0.00 | 0.29 | 0.01 | 85 | 1012.7 |
| 20260508030516 | 55 | 270 | 6.0 | 9.0 | 0.00 | 0.29 | 0.01 | 85 | 1012.7 |
| 20260508030017 | 55 | 270 | 6.0 | 11.0 | 0.00 | 0.29 | 0.01 | 85 | 1012.6 |
| 20260508025516 | 55 | 270 | 6.0 | 11.0 | 0.00 | 0.29 | 0.01 | 85 | 1012.6 |
| 20260508025036 | 55 | 270 | 7.0 | 11.0 | 0.00 | 0.29 | 0.01 | 85 | 1012.6 |
| 20260508024536 | 55 | 270 | 7.0 | 11.0 | 0.00 | 0.29 | 0.01 | 85 | 1012.6 |
| 20260508024016 | 55 | 270 | 9.0 | 13.0 | 0.00 | 0.29 | 0.01 | 86 | 1012.6 |
| 20260508023516 | 55 | 270 | 6.0 | 12.0 | 0.00 | 0.29 | 0.01 | 86 | 1012.7 |
| 20260508023036 | 55 | 270 | 7.0 | 10.0 | 0.00 | 0.29 | 0.01 | 86 | 1012.7 |
| 20260508022516 | 55 | 270 | 7.0 | 11.0 | 0.00 | 0.29 | 0.01 | 86 | 1012.7 |
| 20260508022016 | 55 | 270 | 6.0 | 9.0 | 0.00 | 0.29 | 0.01 | 86 | 1012.7 |
| 20260508021516 | 55 | 270 | 5.0 | 9.0 | 0.00 | 0.29 | 0.01 | 86 | 1012.7 |
| 20260508021036 | 55 | 270 | 6.0 | 9.0 | 0.00 | 0.29 | 0.01 | 86 | 1012.8 |
| 20260508020516 | 55 | 270 | 7.0 | 10.0 | 0.00 | 0.29 | 0.01 | 86 | 1012.9 |
| 20260508020016 | 55 | 270 | 8.0 | 10.0 | 0.00 | 0.29 | 0.01 | 86 | 1013.0 |
| 20260508015516 | 55 | 270 | 5.0 | 8.0 | 0.00 | 0.29 | 0.01 | 86 | 1013.0 |
| 20260508015016 | 55 | 270 | 3.0 | 7.0 | 0.00 | 0.29 | 0.01 | 86 | 1013.0 |
| 20260508014516 | 55 | 270 | 4.0 | 8.0 | 0.00 | 0.29 | 0.01 | 86 | 1013.0 |
| 20260508014016 | 55 | 293 | 5.0 | 8.0 | 0.00 | 0.29 | 0.01 | 86 | 1013.0 |
| 20260508013516 | 56 | 270 | 5.0 | 8.0 | 0.00 | 0.29 | 0.01 | 87 | 1013.0 |
| 20260508013016 | 56 | 293 | 4.0 | 8.0 | 0.00 | 0.29 | 0.01 | 87 | 1013.1 |
| 20260508012536 | 56 | 270 | 4.0 | 7.0 | 0.00 | 0.29 | 0.01 | 87 | 1013.0 |
| 20260508012016 | 55 | 270 | 4.0 | 8.0 | 0.00 | 0.29 | 0.01 | 87 | 1013.1 |
| 20260508011516 | 55 | 270 | 6.0 | 9.0 | 0.00 | 0.29 | 0.01 | 87 | 1013.2 |
| 20260508011015 | 55 | 270 | 6.0 | 9.0 | 0.00 | 0.29 | 0.01 | 87 | 1013.3 |
| 20260508010515 | 55 | 270 | 6.0 | 9.0 | 0.00 | 0.29 | 0.01 | 87 | 1013.4 |
| 20260508010016 | 55 | 270 | 7.0 | 9.0 | 0.00 | 0.29 | 0.01 | 87 | 1013.6 |
| 20260508005515 | 55 | 270 | 5.0 | 7.0 | 0.00 | 0.29 | 0.01 | 87 | 1013.7 |
| 20260508005016 | 56 | 270 | 6.0 | 9.0 | 0.00 | 0.29 | 0.01 | 87 | 1013.7 |
| 20260508004516 | 56 | 270 | 6.0 | 9.0 | 0.00 | 0.29 | 0.01 | 87 | 1013.8 |
| 20260508004015 | 56 | 270 | 6.0 | 8.0 | 0.00 | 0.29 | 0.01 | 87 | 1013.9 |
| 20260508003536 | 56 | 270 | 6.0 | 9.0 | 0.00 | 0.29 | 0.01 | 88 | 1013.9 |
| 20260508003015 | 56 | 270 | 6.0 | 8.0 | 0.00 | 0.29 | 0.01 | 88 | 1013.9 |
| 20260508002515 | 56 | 270 | 4.0 | 7.0 | 0.01 | 0.29 | 0.01 | 88 | 1014.1 |
| 20260508002016 | 56 | 270 | 5.0 | 8.0 | 0.01 | 0.29 | 0.01 | 88 | 1014.1 |
| 20260508001556 | 56 | 270 | 4.0 | 7.0 | 0.01 | 0.29 | 0.01 | 88 | 1014.2 |
| 20260508001016 | 56 | 270 | 3.0 | 4.0 | 0.01 | 0.29 | 0.01 | 88 | 1014.3 |
| 20260508000516 | 56 | 293 | 2.0 | 4.0 | 0.01 | 0.29 | 0.01 | 89 | 1014.4 |
| 20260508000015 | 56 | 293 | 3.0 | 5.0 | 0.01 | 0.29 | 0.01 | 89 | 1014.3 |
| 20260507235516 | 56 | 293 | 4.0 | 7.0 | 0.01 | 0.29 | 0.01 | 89 | 1014.3 |
| 20260507235016 | 56 | 270 | 4.0 | 7.0 | 0.01 | 0.29 | 0.01 | 89 | 1014.4 |
| 20260507234515 | 56 | 270 | 4.0 | 8.0 | 0.01 | 0.29 | 0.01 | 89 | 1014.4 |
| 20260507234016 | 56 | 270 | 5.0 | 8.0 | 0.01 | 0.29 | 0.01 | 89 | 1014.5 |
| 20260507233516 | 56 | 270 | 4.0 | 7.0 | 0.01 | 0.29 | 0.01 | 89 | 1014.5 |
| 20260507233015 | 56 | 270 | 3.0 | 7.0 | 0.01 | 0.29 | 0.01 | 89 | 1014.5 |
| 20260507232536 | 56 | 270 | 5.0 | 11.0 | 0.00 | 0.28 | 0.00 | 89 | 1014.5 |
| 20260507232016 | 56 | 293 | 8.0 | 11.0 | 0.00 | 0.28 | 0.00 | 89 | 1014.5 |
| 20260507231516 | 56 | 270 | 5.0 | 9.0 | 0.00 | 0.28 | 0.00 | 89 | 1014.6 |
| 20260507231015 | 56 | 270 | 3.0 | 7.0 | 0.00 | 0.28 | 0.00 | 89 | 1014.6 |
| 20260507230516 | 57 | 270 | 4.0 | 9.0 | 0.00 | 0.28 | 0.00 | 89 | 1014.5 |
| 20260507230015 | 57 | 270 | 5.0 | 8.0 | 0.00 | 0.28 | 0.00 | 89 | 1014.4 |
| 20260507225516 | 57 | 270 | 5.0 | 8.0 | 0.00 | 0.28 | 0.00 | 90 | 1014.5 |
| 20260507225015 | 57 | 270 | 5.0 | 9.0 | 0.00 | 0.28 | 0.00 | 90 | 1014.4 |
| 20260507224516 | 57 | 270 | 6.0 | 9.0 | 0.00 | 0.28 | 0.00 | 89 | 1014.4 |
| 20260507224015 | 57 | 270 | 4.0 | 7.0 | 0.00 | 0.28 | 0.00 | 89 | 1014.5 |
| 20260507223515 | 57 | 270 | 5.0 | 8.0 | 0.00 | 0.28 | 0.00 | 89 | 1014.4 |
| 20260507223015 | 57 | 270 | 3.0 | 6.0 | 0.00 | 0.28 | 0.00 | 89 | 1014.4 |
| 20260507222515 | 57 | 270 | 2.0 | 3.0 | 0.00 | 0.28 | 0.00 | 89 | 1014.3 |
| 20260507222015 | 57 | 293 | 2.0 | 3.0 | 0.00 | 0.28 | 0.00 | 89 | 1014.2 |
| 20260507221515 | 57 | 270 | 2.0 | 4.0 | 0.00 | 0.28 | 0.00 | 89 | 1014.1 |
| 20260507221035 | 57 | 270 | 3.0 | 6.0 | 0.00 | 0.28 | 0.00 | 89 | 1014.0 |
| 20260507220515 | 57 | 270 | 2.0 | 4.0 | 0.00 | 0.28 | 0.00 | 89 | 1014.0 |
| 20260507220015 | 58 | 270 | 2.0 | 3.0 | 0.00 | 0.28 | 0.28 | 89 | 1013.9 |
| 20260507215516 | 58 | 270 | 2.0 | 3.0 | 0.00 | 0.28 | 0.28 | 89 | 1013.9 |
| 20260507215016 | 58 | 0 | 2.0 | 4.0 | 0.00 | 0.28 | 0.28 | 89 | 1014.0 |
| 20260507214536 | 58 | 0 | 2.0 | 3.0 | 0.00 | 0.28 | 0.28 | 89 | 1014.0 |
| 20260507214016 | 58 | 0 | 2.0 | 3.0 | 0.00 | 0.28 | 0.28 | 89 | 1014.0 |
| 20260507213516 | 58 | 0 | 1.0 | 2.0 | 0.00 | 0.28 | 0.28 | 89 | 1014.0 |
| 20260507213016 | 58 | 0 | 1.0 | 2.0 | 0.00 | 0.28 | 0.28 | 89 | 1014.0 |
| 20260507212516 | 58 | 0 | 1.0 | 3.0 | 0.00 | 0.28 | 0.28 | 89 | 1014.0 |
| 20260507212016 | 58 | 23 | 2.0 | 3.0 | 0.00 | 0.28 | 0.28 | 89 | 1014.0 |
| 20260507211516 | 58 | 23 | 1.0 | 2.0 | 0.00 | 0.28 | 0.28 | 89 | 1014.0 |
| 20260507211016 | 58 | 23 | 1.0 | 2.0 | 0.00 | 0.28 | 0.28 | 89 | 1014.0 |
| 20260507210516 | 58 | 23 | 1.0 | 2.0 | 0.00 | 0.28 | 0.28 | 89 | 1014.0 |
| 20260507210016 | 58 | 23 | 1.0 | 2.0 | 0.00 | 0.28 | 0.28 | 89 | 1014.0 |
| 20260507205516 | 58 | 0.0 | 2.0 | 0.00 | 0.28 | 0.28 | 89 | 1014.0 | |
| 20260507205016 | 58 | 0.0 | 2.0 | 0.00 | 0.28 | 0.28 | 89 | 1014.0 | |
| 20260507204516 | 59 | 23 | 1.0 | 2.0 | 0.00 | 0.28 | 0.28 | 89 | 1014.0 |
| 20260507204016 | 59 | 0.0 | 1.0 | 0.00 | 0.28 | 0.28 | 89 | 1014.1 | |
| 20260507203536 | 58 | 0.0 | 0.0 | 0.00 | 0.28 | 0.28 | 89 | 1014.0 | |
| 20260507203016 | 58 | 0.0 | 0.0 | 0.00 | 0.28 | 0.28 | 89 | 1014.1 | |
| 20260507202516 | 58 | 0.0 | 2.0 | 0.00 | 0.28 | 0.28 | 89 | 1014.0 | |
| 20260507202016 | 58 | 0.0 | 0.0 | 0.00 | 0.28 | 0.28 | 89 | 1013.9 | |
| 20260507201516 | 58 | 0.0 | 2.0 | 0.00 | 0.28 | 0.28 | 89 | 1013.8 | |
| 20260507201016 | 58 | 0.0 | 0.0 | 0.00 | 0.28 | 0.28 | 89 | 1013.8 | |
| 20260507200516 | 58 | 0.0 | 3.0 | 0.00 | 0.28 | 0.28 | 89 | 1013.7 | |
| 20260507200016 | 58 | 0.0 | 3.0 | 0.00 | 0.28 | 0.28 | 89 | 1013.8 | |
| 20260507195516 | 58 | 23 | 1.0 | 3.0 | 0.00 | 0.28 | 0.28 | 89 | 1013.7 |
| 20260507195016 | 58 | 23 | 2.0 | 4.0 | 0.00 | 0.28 | 0.28 | 88 | 1013.5 |
| 20260507194536 | 58 | 23 | 2.0 | 4.0 | 0.00 | 0.28 | 0.28 | 88 | 1013.5 |
| 20260507194016 | 58 | 23 | 3.0 | 5.0 | 0.01 | 0.28 | 0.28 | 88 | 1013.4 |
| 20260507193536 | 58 | 23 | 2.0 | 5.0 | 0.01 | 0.28 | 0.28 | 88 | 1013.4 |
| 20260507193016 | 58 | 45 | 1.0 | 3.0 | 0.01 | 0.28 | 0.28 | 88 | 1013.2 |
| 20260507192516 | 58 | 45 | 1.0 | 5.0 | 0.02 | 0.28 | 0.28 | 88 | 1013.2 |
| 20260507192016 | 58 | 45 | 2.0 | 6.0 | 0.02 | 0.28 | 0.28 | 88 | 1013.2 |
| 20260507191516 | 58 | 0.0 | 3.0 | 0.02 | 0.28 | 0.28 | 88 | 1013.0 | |
| 20260507191036 | 58 | 68 | 1.0 | 4.0 | 0.03 | 0.28 | 0.28 | 87 | 1012.9 |
| 20260507190516 | 58 | 68 | 3.0 | 5.0 | 0.04 | 0.28 | 0.28 | 87 | 1012.7 |
| 20260507190016 | 58 | 45 | 2.0 | 7.0 | 0.05 | 0.28 | 0.28 | 87 | 1012.5 |
| 20260507185556 | 58 | 45 | 3.0 | 5.0 | 0.06 | 0.28 | 0.28 | 87 | 1012.5 |
| 20260507185016 | 58 | 23 | 1.0 | 5.0 | 0.06 | 0.28 | 0.28 | 86 | 1012.5 |
| 20260507184536 | 58 | 23 | 2.0 | 5.0 | 0.08 | 0.28 | 0.28 | 86 | 1012.6 |
| 20260507184016 | 58 | 23 | 1.0 | 7.0 | 0.08 | 0.28 | 0.28 | 86 | 1012.6 |
| 20260507183516 | 58 | 23 | 1.0 | 5.0 | 0.09 | 0.28 | 0.28 | 86 | 1012.6 |
| 20260507183016 | 58 | 0.0 | 3.0 | 0.09 | 0.28 | 0.28 | 86 | 1012.6 | |
| 20260507182516 | 58 | 0 | 1.0 | 4.0 | 0.09 | 0.27 | 0.27 | 86 | 1012.5 |
| 20260507182016 | 58 | 0.0 | 3.0 | 0.13 | 0.27 | 0.27 | 86 | 1012.4 | |
| 20260507181516 | 59 | 0.0 | 3.0 | 0.16 | 0.26 | 0.26 | 87 | 1012.3 | |
| 20260507181016 | 59 | 0 | 1.0 | 4.0 | 0.19 | 0.25 | 0.25 | 86 | 1012.3 |
| 20260507180516 | 59 | 0 | 2.0 | 5.0 | 0.24 | 0.24 | 0.24 | 87 | 1012.2 |
| 20260507180016 | 59 | 338 | 1.0 | 4.0 | 0.24 | 0.24 | 0.24 | 86 | 1012.3 |
| 20260507175536 | 59 | 0 | 2.0 | 4.0 | 0.23 | 0.23 | 0.23 | 86 | 1012.3 |
| 20260507175016 | 59 | 338 | 1.0 | 4.0 | 0.22 | 0.22 | 0.22 | 86 | 1012.3 |
| 20260507174516 | 59 | 338 | 1.0 | 4.0 | 0.20 | 0.20 | 0.20 | 86 | 1012.3 |
| 20260507174036 | 59 | 315 | 2.0 | 4.0 | 0.20 | 0.20 | 0.20 | 86 | 1012.3 |
| 20260507173516 | 59 | 338 | 1.0 | 4.0 | 0.19 | 0.19 | 0.19 | 86 | 1012.3 |
| 20260507173016 | 59 | 315 | 3.0 | 4.0 | 0.18 | 0.18 | 0.18 | 85 | 1012.3 |
| 20260507172516 | 60 | 315 | 4.0 | 8.0 | 0.17 | 0.17 | 0.17 | 85 | 1012.2 |
| 20260507172016 | 60 | 315 | 3.0 | 7.0 | 0.14 | 0.14 | 0.14 | 84 | 1012.4 |
| 20260507171516 | 60 | 315 | 5.0 | 10.0 | 0.10 | 0.10 | 0.10 | 84 | 1012.5 |
| 20260507171016 | 61 | 270 | 8.0 | 14.0 | 0.06 | 0.06 | 0.06 | 83 | 1012.5 |
| 20260507170516 | 61 | 270 | 13.0 | 20.0 | 0.01 | 0.01 | 0.01 | 82 | 1012.4 |
| 20260507170016 | 62 | 225 | 13.0 | 20.0 | 0.00 | 0.00 | 0.00 | 83 | 1012.2 |
| 20260507165516 | 62 | 225 | 8.0 | 15.0 | 0.00 | 0.00 | 0.00 | 83 | 1012.1 |
| 20260507165015 | 62 | 180 | 6.0 | 10.0 | 0.00 | 0.00 | 0.00 | 83 | 1011.6 |
| 20260507164516 | 62 | 113 | 8.0 | 12.0 | 0.00 | 0.00 | 0.00 | 82 | 1011.4 |
| 20260507164016 | 63 | 135 | 6.0 | 12.0 | 0.00 | 0.00 | 0.00 | 82 | 1011.3 |
| 20260507163516 | 63 | 135 | 7.0 | 13.0 | 0.00 | 0.00 | 0.00 | 82 | 1011.3 |
| 20260507163016 | 63 | 90 | 7.0 | 14.0 | 0.00 | 0.00 | 0.00 | 82 | 1011.2 |
| 20260507162516 | 64 | 90 | 8.0 | 15.0 | 0.00 | 0.00 | 0.00 | 82 | 1011.2 |
| 20260507162015 | 64 | 90 | 6.0 | 11.0 | 0.00 | 0.00 | 0.00 | 80 | 1011.2 |
| 20260507161515 | 65 | 90 | 10.0 | 14.0 | 0.00 | 0.00 | 0.00 | 78 | 1011.3 |
| 20260507161016 | 65 | 90 | 10.0 | 14.0 | 0.00 | 0.00 | 0.00 | 77 | 1011.3 |
| 20260507160516 | 65 | 68 | 10.0 | 15.0 | 0.00 | 0.00 | 0.00 | 77 | 1011.2 |
| 20260507160016 | 65 | 90 | 7.0 | 12.0 | 0.00 | 0.00 | 0.00 | 78 | 1011.2 |
| 20260507155516 | 65 | 90 | 9.0 | 13.0 | 0.00 | 0.00 | 0.00 | 78 | 1011.2 |
| 20260507155015 | 65 | 90 | 7.0 | 12.0 | 0.00 | 0.00 | 0.00 | 78 | 1011.2 |
| 20260507154516 | 65 | 90 | 7.0 | 13.0 | 0.00 | 0.00 | 0.00 | 77 | 1011.2 |
| 20260507154016 | 65 | 90 | 8.0 | 12.0 | 0.00 | 0.00 | 0.00 | 77 | 1011.1 |
| 20260507153516 | 65 | 68 | 7.0 | 11.0 | 0.00 | 0.00 | 0.00 | 76 | 1011.1 |
| 20260507153016 | 65 | 90 | 5.0 | 9.0 | 0.00 | 0.00 | 0.00 | 78 | 1011.2 |
| 20260507152515 | 65 | 90 | 4.0 | 8.0 | 0.00 | 0.00 | 0.00 | 78 | 1011.3 |
| 20260507152015 | 65 | 113 | 4.0 | 8.0 | 0.00 | 0.00 | 0.00 | 78 | 1011.3 |
| 20260507151515 | 65 | 113 | 2.0 | 7.0 | 0.00 | 0.00 | 0.00 | 79 | 1011.2 |
| 20260507151035 | 65 | 90 | 3.0 | 9.0 | 0.00 | 0.00 | 0.00 | 79 | 1011.2 |
| 20260507150516 | 65 | 68 | 7.0 | 10.0 | 0.00 | 0.00 | 0.00 | 78 | 1011.3 |
| 20260507150016 | 65 | 90 | 6.0 | 10.0 | 0.00 | 0.00 | 0.00 | 78 | 1011.2 |
| 20260507145515 | 65 | 90 | 6.0 | 10.0 | 0.00 | 0.00 | 0.00 | 77 | 1011.2 |
| 20260507145016 | 65 | 90 | 5.0 | 9.0 | 0.00 | 0.00 | 0.00 | 77 | 1011.2 |
| 20260507144536 | 65 | 90 | 7.0 | 11.0 | 0.00 | 0.00 | 0.00 | 76 | 1011.2 |
| 20260507144035 | 65 | 68 | 10.0 | 13.0 | 0.00 | 0.00 | 0.00 | 76 | 1011.1 |
| 20260507143515 | 66 | 90 | 10.0 | 16.0 | 0.00 | 0.00 | 0.00 | 74 | 1011.0 |
| 20260507143036 | 66 | 90 | 9.0 | 14.0 | 0.00 | 0.00 | 0.00 | 73 | 1011.0 |
| 20260507142515 | 66 | 90 | 12.0 | 15.0 | 0.00 | 0.00 | 0.00 | 72 | 1011.0 |
| 20260507142036 | 66 | 90 | 13.0 | 17.0 | 0.00 | 0.00 | 0.00 | 68 | 1011.0 |
| 20260507141516 | 67 | 90 | 11.0 | 18.0 | 0.00 | 0.00 | 0.00 | 70 | 1010.9 |
| 20260507141035 | 66 | 90 | 11.0 | 18.0 | 0.00 | 0.00 | 0.00 | 70 | 1010.9 |
| 20260507140515 | 66 | 90 | 11.0 | 15.0 | 0.00 | 0.00 | 0.00 | 69 | 1011.0 |
| 20260507140016 | 66 | 90 | 10.0 | 17.0 | 0.00 | 0.00 | 0.00 | 70 | 1011.0 |
| 20260507135516 | 66 | 90 | 13.0 | 18.0 | 0.00 | 0.00 | 0.00 | 71 | 1011.0 |
| 20260507135016 | 66 | 90 | 13.0 | 19.0 | 0.00 | 0.00 | 0.00 | 71 | 1011.1 |
| 20260507134516 | 66 | 90 | 12.0 | 17.0 | 0.00 | 0.00 | 0.00 | 70 | 1011.0 |
| 20260507134016 | 66 | 68 | 13.0 | 19.0 | 0.00 | 0.00 | 0.00 | 69 | 1011.1 |
| 20260507133516 | 66 | 90 | 13.0 | 19.0 | 0.00 | 0.00 | 0.00 | 68 | 1011.1 |
| 20260507133035 | 67 | 90 | 15.0 | 21.0 | 0.00 | 0.00 | 0.00 | 67 | 1011.2 |
| 20260507132515 | 67 | 90 | 14.0 | 20.0 | 0.00 | 0.00 | 0.00 | 65 | 1011.2 |
| 20260507132036 | 67 | 90 | 12.0 | 18.0 | 0.00 | 0.00 | 0.00 | 64 | 1011.3 |
| 20260507131515 | 67 | 68 | 14.0 | 19.0 | 0.00 | 0.00 | 0.00 | 64 | 1011.3 |
| 20260507131015 | 67 | 90 | 12.0 | 20.0 | 0.00 | 0.00 | 0.00 | 63 | 1011.4 |
| 20260507130515 | 68 | 68 | 16.0 | 21.0 | 0.00 | 0.00 | 0.00 | 64 | 1011.4 |
| 20260507130015 | 68 | 90 | 14.0 | 20.0 | 0.00 | 0.00 | 0.00 | 63 | 1011.5 |
| 20260507125515 | 68 | 68 | 18.0 | 24.0 | 0.00 | 0.00 | 0.00 | 64 | 1011.6 |
| 20260507125015 | 68 | 90 | 16.0 | 20.0 | 0.00 | 0.00 | 0.00 | 63 | 1011.6 |
| 20260507124515 | 68 | 68 | 16.0 | 23.0 | 0.00 | 0.00 | 0.00 | 63 | 1011.7 |
| 20260507124015 | 68 | 68 | 14.0 | 21.0 | 0.00 | 0.00 | 0.00 | 63 | 1011.6 |
| 20260507123535 | 68 | 68 | 14.0 | 21.0 | 0.00 | 0.00 | 0.00 | 62 | 1011.6 |
| 20260507123035 | 68 | 68 | 13.0 | 20.0 | 0.00 | 0.00 | 0.00 | 63 | 1011.7 |
| 20260507122535 | 68 | 68 | 14.0 | 20.0 | 0.00 | 0.00 | 0.00 | 63 | 1011.8 |
| 20260507122015 | 68 | 90 | 13.0 | 20.0 | 0.00 | 0.00 | 0.00 | 63 | 1011.9 |
| 20260507121515 | 68 | 90 | 17.0 | 22.0 | 0.00 | 0.00 | 0.00 | 65 | 1011.9 |
| 20260507121015 | 68 | 90 | 16.0 | 22.0 | 0.00 | 0.00 | 0.00 | 65 | 1011.9 |
| 20260507120515 | 68 | 90 | 14.0 | 23.0 | 0.00 | 0.00 | 0.00 | 64 | 1012.0 |
| 20260507120015 | 68 | 90 | 12.0 | 17.0 | 0.00 | 0.00 | 0.00 | 64 | 1011.9 |
| 20260507115515 | 68 | 68 | 14.0 | 21.0 | 0.00 | 0.00 | 0.00 | 63 | 1011.9 |
| 20260507115015 | 68 | 90 | 14.0 | 21.0 | 0.00 | 0.00 | 0.00 | 63 | 1011.9 |
| 20260507114515 | 68 | 68 | 15.0 | 21.0 | 0.00 | 0.00 | 0.00 | 61 | 1011.9 |
| 20260507114035 | 68 | 68 | 14.0 | 21.0 | 0.00 | 0.00 | 0.00 | 62 | 1012.0 |
| 20260507113517 | 68 | 68 | 11.0 | 18.0 | 0.00 | 0.00 | 0.00 | 63 | 1012.0 |
| 20260507113017 | 68 | 68 | 11.0 | 19.0 | 0.00 | 0.00 | 0.00 | 64 | 1012.1 |
| 20260507112517 | 68 | 68 | 12.0 | 21.0 | 0.00 | 0.00 | 0.00 | 66 | 1012.2 |
| 20260507112017 | 68 | 45 | 11.0 | 19.0 | 0.00 | 0.00 | 0.00 | 65 | 1012.4 |
| 20260507111515 | 68 | 90 | 12.0 | 20.0 | 0.00 | 0.00 | 0.00 | 65 | 1012.4 |
| 20260507111037 | 67 | 68 | 11.0 | 20.0 | 0.00 | 0.00 | 0.00 | 64 | 1012.5 |
| 20260507110517 | 68 | 45 | 12.0 | 21.0 | 0.00 | 0.00 | 0.00 | 64 | 1012.5 |
| 20260507110057 | 68 | 68 | 14.0 | 22.0 | 0.00 | 0.00 | 0.00 | 64 | 1012.5 |
| 20260507105517 | 67 | 68 | 13.0 | 20.0 | 0.00 | 0.00 | 0.00 | 65 | 1012.5 |
| 20260507105017 | 67 | 68 | 14.0 | 22.0 | 0.00 | 0.00 | 0.00 | 66 | 1012.6 |
| 20260507104517 | 67 | 68 | 10.0 | 19.0 | 0.00 | 0.00 | 0.00 | 66 | 1012.6 |
| 20260507104017 | 67 | 68 | 14.0 | 22.0 | 0.00 | 0.00 | 0.00 | 67 | 1012.5 |
| 20260507103517 | 67 | 68 | 16.0 | 23.0 | 0.00 | 0.00 | 0.00 | 67 | 1012.7 |
| 20260507103017 | 67 | 68 | 12.0 | 21.0 | 0.00 | 0.00 | 0.00 | 67 | 1012.7 |
| 20260507102517 | 67 | 68 | 12.0 | 19.0 | 0.00 | 0.00 | 0.00 | 68 | 1012.7 |
| 20260507102017 | 67 | 68 | 12.0 | 21.0 | 0.00 | 0.00 | 0.00 | 69 | 1012.7 |
| 20260507101517 | 67 | 68 | 12.0 | 21.0 | 0.00 | 0.00 | 0.00 | 68 | 1012.6 |
| 20260507101017 | 67 | 68 | 12.0 | 20.0 | 0.00 | 0.00 | 0.00 | 68 | 1012.6 |
| 20260507100517 | 67 | 68 | 10.0 | 23.0 | 0.00 | 0.00 | 0.00 | 69 | 1012.6 |
| 20260507100017 | 67 | 68 | 13.0 | 23.0 | 0.00 | 0.00 | 0.00 | 68 | 1012.7 |
| 20260507095517 | 66 | 68 | 13.0 | 21.0 | 0.00 | 0.00 | 0.00 | 69 | 1012.7 |
| 20260507095017 | 67 | 68 | 13.0 | 21.0 | 0.00 | 0.00 | 0.00 | 69 | 1012.7 |
| 20260507094517 | 66 | 68 | 12.0 | 21.0 | 0.00 | 0.00 | 0.00 | 70 | 1012.8 |
| 20260507094017 | 66 | 68 | 10.0 | 20.0 | 0.00 | 0.00 | 0.00 | 70 | 1012.8 |
| 20260507093537 | 67 | 68 | 10.0 | 17.0 | 0.00 | 0.00 | 0.00 | 70 | 1012.9 |
| 20260507093037 | 67 | 68 | 9.0 | 20.0 | 0.00 | 0.00 | 0.00 | 70 | 1012.9 |
| 20260507092517 | 66 | 45 | 11.0 | 19.0 | 0.00 | 0.00 | 0.00 | 70 | 1012.9 |
| 20260507092017 | 67 | 90 | 9.0 | 16.0 | 0.00 | 0.00 | 0.00 | 69 | 1012.9 |
| 20260507091517 | 67 | 68 | 10.0 | 16.0 | 0.00 | 0.00 | 0.00 | 69 | 1013.1 |
| 20260507091017 | 66 | 68 | 8.0 | 14.0 | 0.00 | 0.00 | 0.00 | 69 | 1012.9 |
| 20260507090517 | 66 | 68 | 11.0 | 18.0 | 0.00 | 0.00 | 0.00 | 69 | 1012.8 |
| 20260507090017 | 66 | 68 | 10.0 | 18.0 | 0.00 | 0.00 | 0.00 | 69 | 1012.9 |
| 20260507085537 | 66 | 68 | 8.0 | 21.0 | 0.00 | 0.00 | 0.00 | 70 | 1012.9 |
| 20260507085017 | 66 | 68 | 9.0 | 21.0 | 0.00 | 0.00 | 0.00 | 69 | 1012.9 |
| 20260507084517 | 66 | 68 | 10.0 | 17.0 | 0.00 | 0.00 | 0.00 | 69 | 1012.9 |
| 20260507084017 | 66 | 68 | 11.0 | 20.0 | 0.00 | 0.00 | 0.00 | 70 | 1012.9 |
| 20260507083537 | 66 | 68 | 12.0 | 20.0 | 0.00 | 0.00 | 0.00 | 69 | 1012.9 |
| 20260507083017 | 66 | 68 | 12.0 | 19.0 | 0.00 | 0.00 | 0.00 | 69 | 1012.8 |
| 20260507082517 | 66 | 68 | 10.0 | 18.0 | 0.00 | 0.00 | 0.00 | 70 | 1012.8 |
| 20260507082017 | 66 | 90 | 5.0 | 9.0 | 0.00 | 0.00 | 0.00 | 70 | 1012.8 |
| 20260507081517 | 66 | 68 | 9.0 | 17.0 | 0.00 | 0.00 | 0.00 | 69 | 1012.9 |